owner,sensor,date,latitude,longitude,vertical_datum,wind_speed,wind_to_direction,wind_speed_of_gust,qcFlag 
TCOON,ioos:station:TCOON:005:1,2017-10-01T00:06:00Z,27.6346,-97.2370,0.0,5.7,70.0,6.6,'11111222,11111222,11111222' 
TCOON,ioos:station:TCOON:005:1,2017-10-01T00:12:00Z,27.6346,-97.2370,0.0,6.1,70.0,6.8,'11111222,11111222,11111222' 
TCOON,ioos:station:TCOON:005:1,2017-10-01T00:18:00Z,27.6346,-97.2370,0.0,6.1,70.0,6.8,'1111122,1111122,1111122' 
TCOON,ioos:station:TCOON:005:1,2017-10-01T00:24:00Z,27.6346,-97.2370,0.0,5.9,72.0,6.9,'11111222,11111222,11111222' 
TCOON,ioos:station:TCOON:005:1,2017-10-01T00:30:00Z,27.6346,-97.2370,0.0,5.4,79.0,6.4,'11111222,11111222,11111222' 
TCOON,ioos:station:TCOON:005:1,2017-10-01T00:36:00Z,27.6346,-97.2370,0.0,5.7,75.0,6.7,'11111222,11111222,11111222' 
TCOON,ioos:station:TCOON:005:1,2017-10-01T00:42:00Z,27.6346,-97.2370,0.0,5.3,69.0,6.2,'11111222,11111222,11111222' 
TCOON,ioos:station:TCOON:005:1,2017-10-01T00:48:00Z,27.6346,-97.2370,0.0,5.1,72.0,6.2,'11111222,11111222,11111222' 
TCOON,ioos:station:TCOON:005:1,2017-10-01T00:54:00Z,27.6346,-97.2370,0.0,5.6,75.0,6.3,'11111222,11111222,11111222' 
TCOON,ioos:station:TCOON:005:1,2017-10-01T01:00:00Z,27.6346,-97.2370,0.0,4.9,72.0,6.0,'11111222,11111222,11111222' 
TCOON,ioos:station:TCOON:005:1,2017-10-01T01:06:00Z,27.6346,-97.2370,0.0,5.5,64.0,6.0,'11111222,11111222,11111222' 
TCOON,ioos:station:TCOON:005:1,2017-10-01T01:12:00Z,27.6346,-97.2370,0.0,5.0,70.0,5.8,'11111222,11111222,11111222' 
TCOON,ioos:station:TCOON:005:1,2017-10-01T01:18:00Z,27.6346,-97.2370,0.0,5.0,70.0,5.8,'1111122,1111122,1111122' 
TCOON,ioos:station:TCOON:005:1,2017-10-01T01:24:00Z,27.6346,-97.2370,0.0,4.9,66.0,5.7,'11111222,11111222,11111222' 
TCOON,ioos:station:TCOON:005:1,2017-10-01T01:30:00Z,27.6346,-97.2370,0.0,5.0,70.0,5.4,'11111222,11111222,11111222' 
TCOON,ioos:station:TCOON:005:1,2017-10-01T01:36:00Z,27.6346,-97.2370,0.0,4.8,71.0,6.0,'11111222,11111222,11111222' 
TCOON,ioos:station:TCOON:005:1,2017-10-01T01:42:00Z,27.6346,-97.2370,0.0,5.2,68.0,5.9,'11111222,11111222,11111222' 
TCOON,ioos:station:TCOON:005:1,2017-10-01T01:48:00Z,27.6346,-97.2370,0.0,4.9,69.0,5.7,'11111222,11111222,11111222' 
TCOON,ioos:station:TCOON:005:1,2017-10-01T01:54:00Z,27.6346,-97.2370,0.0,5.5,63.0,6.2,'11111222,11111222,11111222' 
TCOON,ioos:station:TCOON:005:1,2017-10-01T02:00:00Z,27.6346,-97.2370,0.0,5.3,58.0,5.8,'11111222,11111222,11111222' 
TCOON,ioos:station:TCOON:005:1,2017-10-01T02:06:00Z,27.6346,-97.2370,0.0,5.0,62.0,5.7,'11111222,11111222,11111222' 
TCOON,ioos:station:TCOON:005:1,2017-10-01T02:12:00Z,27.6346,-97.2370,0.0,4.7,69.0,5.4,'11111222,11111222,11111222' 
TCOON,ioos:station:TCOON:005:1,2017-10-01T02:18:00Z,27.6346,-97.2370,0.0,4.7,69.0,5.4,'1111122,1111122,1111122' 
TCOON,ioos:station:TCOON:005:1,2017-10-01T02:24:00Z,27.6346,-97.2370,0.0,4.3,67.0,4.8,'11111222,11111222,11111222' 
TCOON,ioos:station:TCOON:005:1,2017-10-01T02:30:00Z,27.6346,-97.2370,0.0,4.5,63.0,5.0,'11111222,11111222,11111222' 
TCOON,ioos:station:TCOON:005:1,2017-10-01T02:36:00Z,27.6346,-97.2370,0.0,4.9,63.0,5.9,'11111222,11111222,11111222' 
TCOON,ioos:station:TCOON:005:1,2017-10-01T02:42:00Z,27.6346,-97.2370,0.0,4.7,66.0,5.3,'11111222,11111222,11111222' 
TCOON,ioos:station:TCOON:005:1,2017-10-01T02:48:00Z,27.6346,-97.2370,0.0,5.1,65.0,6.1,'11111222,11111222,11111222' 
TCOON,ioos:station:TCOON:005:1,2017-10-01T02:54:00Z,27.6346,-97.2370,0.0,4.8,70.0,6.1,'11111222,11111222,11111222' 
TCOON,ioos:station:TCOON:005:1,2017-10-01T03:00:00Z,27.6346,-97.2370,0.0,4.5,68.0,5.2,'11111222,11111222,11111222' 
TCOON,ioos:station:TCOON:005:1,2017-10-01T03:06:00Z,27.6346,-97.2370,0.0,5.0,72.0,5.6,'11111222,11111222,11111222' 
TCOON,ioos:station:TCOON:005:1,2017-10-01T03:12:00Z,27.6346,-97.2370,0.0,4.6,74.0,5.2,'11111222,11111222,11111222' 
TCOON,ioos:station:TCOON:005:1,2017-10-01T03:18:00Z,27.6346,-97.2370,0.0,4.6,74.0,5.2,'1111122,1111122,1111122' 
TCOON,ioos:station:TCOON:005:1,2017-10-01T03:24:00Z,27.6346,-97.2370,0.0,5.0,68.0,5.4,'11111222,11111222,11111222' 
TCOON,ioos:station:TCOON:005:1,2017-10-01T03:30:00Z,27.6346,-97.2370,0.0,4.8,67.0,5.5,'11111222,11111222,11111222' 
TCOON,ioos:station:TCOON:005:1,2017-10-01T03:36:00Z,27.6346,-97.2370,0.0,4.2,65.0,4.8,'11111222,11111222,11111222' 
TCOON,ioos:station:TCOON:005:1,2017-10-01T03:42:00Z,27.6346,-97.2370,0.0,4.4,63.0,5.0,'11111222,11111222,11111222' 
TCOON,ioos:station:TCOON:005:1,2017-10-01T03:48:00Z,27.6346,-97.2370,0.0,4.2,69.0,5.0,'11111222,11111222,11111222' 
TCOON,ioos:station:TCOON:005:1,2017-10-01T03:54:00Z,27.6346,-97.2370,0.0,3.8,64.0,4.3,'11111222,11111222,11111222' 
TCOON,ioos:station:TCOON:005:1,2017-10-01T04:00:00Z,27.6346,-97.2370,0.0,3.7,67.0,4.5,'11111222,11111222,11111222' 
TCOON,ioos:station:TCOON:005:1,2017-10-01T04:06:00Z,27.6346,-97.2370,0.0,3.5,67.0,4.2,'11111222,11111222,11111222' 
TCOON,ioos:station:TCOON:005:1,2017-10-01T04:12:00Z,27.6346,-97.2370,0.0,3.7,70.0,4.1,'11111222,11111222,11111222' 
TCOON,ioos:station:TCOON:005:1,2017-10-01T04:18:00Z,27.6346,-97.2370,0.0,3.7,70.0,4.1,'1111122,1111122,1111122' 
TCOON,ioos:station:TCOON:005:1,2017-10-01T04:24:00Z,27.6346,-97.2370,0.0,3.3,69.0,4.0,'11111222,11111222,11111222' 
TCOON,ioos:station:TCOON:005:1,2017-10-01T04:30:00Z,27.6346,-97.2370,0.0,3.4,63.0,4.0,'11111222,11111222,11111222' 
TCOON,ioos:station:TCOON:005:1,2017-10-01T04:36:00Z,27.6346,-97.2370,0.0,3.2,69.0,3.7,'11111222,11111222,11111222' 
TCOON,ioos:station:TCOON:005:1,2017-10-01T04:42:00Z,27.6346,-97.2370,0.0,3.1,65.0,3.7,'11111222,11111222,11111222' 
TCOON,ioos:station:TCOON:005:1,2017-10-01T04:48:00Z,27.6346,-97.2370,0.0,3.0,66.0,3.6,'11111222,11111222,11111222' 
TCOON,ioos:station:TCOON:005:1,2017-10-01T04:54:00Z,27.6346,-97.2370,0.0,2.8,63.0,3.3,'11111222,11111222,11111222' 
TCOON,ioos:station:TCOON:005:1,2017-10-01T05:00:00Z,27.6346,-97.2370,0.0,2.6,63.0,3.3,'11111222,11111222,11111222' 
TCOON,ioos:station:TCOON:005:1,2017-10-01T05:06:00Z,27.6346,-97.2370,0.0,2.4,60.0,2.8,'11111222,11111222,11111222' 
TCOON,ioos:station:TCOON:005:1,2017-10-01T05:12:00Z,27.6346,-97.2370,0.0,2.7,61.0,3.0,'11111222,11111222,11111222' 
TCOON,ioos:station:TCOON:005:1,2017-10-01T05:18:00Z,27.6346,-97.2370,0.0,2.8,60.0,3.2,'11111222,11111222,11111222' 
TCOON,ioos:station:TCOON:005:1,2017-10-01T05:24:00Z,27.6346,-97.2370,0.0,2.8,60.0,3.2,'1111122,1111122,1111122' 
TCOON,ioos:station:TCOON:005:1,2017-10-01T05:30:00Z,27.6346,-97.2370,0.0,2.7,59.0,3.0,'11111222,11111222,11111222' 
TCOON,ioos:station:TCOON:005:1,2017-10-01T05:36:00Z,27.6346,-97.2370,0.0,2.8,48.0,3.2,'11111222,11111222,11111222' 
TCOON,ioos:station:TCOON:005:1,2017-10-01T05:42:00Z,27.6346,-97.2370,0.0,2.4,35.0,3.0,'11111222,11111222,11111222' 
TCOON,ioos:station:TCOON:005:1,2017-10-01T05:48:00Z,27.6346,-97.2370,0.0,2.2,34.0,3.0,'11111222,11111222,11111222' 
TCOON,ioos:station:TCOON:005:1,2017-10-01T05:54:00Z,27.6346,-97.2370,0.0,2.4,30.0,3.3,'11111222,11111222,11111222' 
TCOON,ioos:station:TCOON:005:1,2017-10-01T06:00:00Z,27.6346,-97.2370,0.0,2.5,32.0,3.1,'11111222,11111222,11111222' 
TCOON,ioos:station:TCOON:005:1,2017-10-01T06:06:00Z,27.6346,-97.2370,0.0,3.1,31.0,3.8,'11111222,11111222,11111222' 
TCOON,ioos:station:TCOON:005:1,2017-10-01T06:12:00Z,27.6346,-97.2370,0.0,3.0,26.0,3.8,'11111222,11111222,11111222' 
TCOON,ioos:station:TCOON:005:1,2017-10-01T06:18:00Z,27.6346,-97.2370,0.0,3.0,26.0,3.8,'1111122,1111122,1111122' 
TCOON,ioos:station:TCOON:005:1,2017-10-01T06:24:00Z,27.6346,-97.2370,0.0,2.9,27.0,4.3,'11111222,11111222,11111222' 
TCOON,ioos:station:TCOON:005:1,2017-10-01T06:30:00Z,27.6346,-97.2370,0.0,3.4,28.0,4.0,'11111222,11111222,11111222' 
TCOON,ioos:station:TCOON:005:1,2017-10-01T06:36:00Z,27.6346,-97.2370,0.0,3.5,32.0,4.2,'11111222,11111222,11111222' 
TCOON,ioos:station:TCOON:005:1,2017-10-01T06:42:00Z,27.6346,-97.2370,0.0,3.5,33.0,4.2,'11111222,11111222,11111222' 
TCOON,ioos:station:TCOON:005:1,2017-10-01T06:48:00Z,27.6346,-97.2370,0.0,3.3,36.0,4.3,'11111222,11111222,11111222' 
TCOON,ioos:station:TCOON:005:1,2017-10-01T06:54:00Z,27.6346,-97.2370,0.0,3.8,34.0,4.5,'11111222,11111222,11111222' 
TCOON,ioos:station:TCOON:005:1,2017-10-01T07:00:00Z,27.6346,-97.2370,0.0,3.6,32.0,4.4,'11111222,11111222,11111222' 
TCOON,ioos:station:TCOON:005:1,2017-10-01T07:06:00Z,27.6346,-97.2370,0.0,3.4,35.0,4.4,'11111222,11111222,11111222' 
TCOON,ioos:station:TCOON:005:1,2017-10-01T07:12:00Z,27.6346,-97.2370,0.0,2.8,32.0,4.1,'11111222,11111222,11111222' 
TCOON,ioos:station:TCOON:005:1,2017-10-01T07:18:00Z,27.6346,-97.2370,0.0,2.8,32.0,4.1,'1111122,1111122,1111122' 
TCOON,ioos:station:TCOON:005:1,2017-10-01T07:24:00Z,27.6346,-97.2370,0.0,2.9,23.0,3.7,'11111222,11111222,11111222' 
TCOON,ioos:station:TCOON:005:1,2017-10-01T07:30:00Z,27.6346,-97.2370,0.0,3.3,25.0,4.0,'11111222,11111222,11111222' 
TCOON,ioos:station:TCOON:005:1,2017-10-01T07:36:00Z,27.6346,-97.2370,0.0,3.4,28.0,4.3,'11111222,11111222,11111222' 
TCOON,ioos:station:TCOON:005:1,2017-10-01T07:42:00Z,27.6346,-97.2370,0.0,3.1,30.0,4.3,'11111222,11111222,11111222' 
TCOON,ioos:station:TCOON:005:1,2017-10-01T07:48:00Z,27.6346,-97.2370,0.0,4.1,23.0,4.8,'11111222,11111222,11111222' 
TCOON,ioos:station:TCOON:005:1,2017-10-01T07:54:00Z,27.6346,-97.2370,0.0,3.7,24.0,4.6,'11111222,11111222,11111222' 
TCOON,ioos:station:TCOON:005:1,2017-10-01T08:00:00Z,27.6346,-97.2370,0.0,4.1,26.0,4.8,'11111222,11111222,11111222' 
TCOON,ioos:station:TCOON:005:1,2017-10-01T08:06:00Z,27.6346,-97.2370,0.0,3.7,28.0,4.9,'11111222,11111222,11111222' 
TCOON,ioos:station:TCOON:005:1,2017-10-01T08:12:00Z,27.6346,-97.2370,0.0,3.8,27.0,4.7,'11111222,11111222,11111222' 
TCOON,ioos:station:TCOON:005:1,2017-10-01T08:18:00Z,27.6346,-97.2370,0.0,3.8,27.0,4.7,'1111122,1111122,1111122' 
TCOON,ioos:station:TCOON:005:1,2017-10-01T08:24:00Z,27.6346,-97.2370,0.0,3.4,35.0,4.2,'11111222,11111222,11111222' 
TCOON,ioos:station:TCOON:005:1,2017-10-01T08:30:00Z,27.6346,-97.2370,0.0,3.2,36.0,4.3,'11111222,11111222,11111222' 
TCOON,ioos:station:TCOON:005:1,2017-10-01T08:36:00Z,27.6346,-97.2370,0.0,3.3,32.0,4.7,'11111222,11111222,11111222' 
TCOON,ioos:station:TCOON:005:1,2017-10-01T08:42:00Z,27.6346,-97.2370,0.0,3.6,34.0,4.6,'11111222,11111222,11111222' 
TCOON,ioos:station:TCOON:005:1,2017-10-01T08:48:00Z,27.6346,-97.2370,0.0,2.8,38.0,4.7,'11111222,11111222,11111222' 
TCOON,ioos:station:TCOON:005:1,2017-10-01T08:54:00Z,27.6346,-97.2370,0.0,3.8,32.0,4.6,'11111222,11111222,11111222' 
TCOON,ioos:station:TCOON:005:1,2017-10-01T09:00:00Z,27.6346,-97.2370,0.0,3.8,35.0,4.4,'11111222,11111222,11111222' 
TCOON,ioos:station:TCOON:005:1,2017-10-01T09:06:00Z,27.6346,-97.2370,0.0,3.2,33.0,4.4,'11111222,11111222,11111222' 
TCOON,ioos:station:TCOON:005:1,2017-10-01T09:12:00Z,27.6346,-97.2370,0.0,3.1,37.0,4.5,'11111222,11111222,11111222' 
TCOON,ioos:station:TCOON:005:1,2017-10-01T09:18:00Z,27.6346,-97.2370,0.0,3.1,37.0,4.5,'1111122,1111122,1111122' 
TCOON,ioos:station:TCOON:005:1,2017-10-01T09:24:00Z,27.6346,-97.2370,0.0,3.4,36.0,4.2,'11111222,11111222,11111222' 
TCOON,ioos:station:TCOON:005:1,2017-10-01T09:30:00Z,27.6346,-97.2370,0.0,3.4,46.0,4.0,'11111222,11111222,11111222' 
TCOON,ioos:station:TCOON:005:1,2017-10-01T09:36:00Z,27.6346,-97.2370,0.0,3.8,50.0,4.4,'11111222,11111222,11111222' 
TCOON,ioos:station:TCOON:005:1,2017-10-01T09:42:00Z,27.6346,-97.2370,0.0,3.4,43.0,4.1,'11111222,11111222,11111222' 
TCOON,ioos:station:TCOON:005:1,2017-10-01T09:48:00Z,27.6346,-97.2370,0.0,3.5,50.0,4.3,'11111222,11111222,11111222' 
TCOON,ioos:station:TCOON:005:1,2017-10-01T09:54:00Z,27.6346,-97.2370,0.0,4.6,48.0,5.1,'11111222,11111222,11111222' 
TCOON,ioos:station:TCOON:005:1,2017-10-01T10:00:00Z,27.6346,-97.2370,0.0,4.6,60.0,5.2,'11111222,11111222,11111222' 
TCOON,ioos:station:TCOON:005:1,2017-10-01T10:06:00Z,27.6346,-97.2370,0.0,3.7,65.0,4.7,'11111222,11111222,11111222' 
TCOON,ioos:station:TCOON:005:1,2017-10-01T10:12:00Z,27.6346,-97.2370,0.0,3.8,64.0,4.4,'11111222,11111222,11111222' 
TCOON,ioos:station:TCOON:005:1,2017-10-01T10:18:00Z,27.6346,-97.2370,0.0,3.8,64.0,4.4,'1111122,1111122,1111122' 
TCOON,ioos:station:TCOON:005:1,2017-10-01T10:24:00Z,27.6346,-97.2370,0.0,4.5,65.0,5.2,'11111222,11111222,11111222' 
TCOON,ioos:station:TCOON:005:1,2017-10-01T10:30:00Z,27.6346,-97.2370,0.0,4.2,62.0,5.3,'11111222,11111222,11111222' 
TCOON,ioos:station:TCOON:005:1,2017-10-01T10:36:00Z,27.6346,-97.2370,0.0,4.5,64.0,5.2,'11111222,11111222,11111222' 
TCOON,ioos:station:TCOON:005:1,2017-10-01T10:42:00Z,27.6346,-97.2370,0.0,4.6,65.0,5.7,'11111222,11111222,11111222' 
TCOON,ioos:station:TCOON:005:1,2017-10-01T10:48:00Z,27.6346,-97.2370,0.0,4.6,69.0,5.3,'11111222,11111222,11111222' 
TCOON,ioos:station:TCOON:005:1,2017-10-01T10:54:00Z,27.6346,-97.2370,0.0,4.8,68.0,5.8,'11111222,11111222,11111222' 
TCOON,ioos:station:TCOON:005:1,2017-10-01T11:00:00Z,27.6346,-97.2370,0.0,5.0,71.0,6.0,'11111222,11111222,11111222' 
TCOON,ioos:station:TCOON:005:1,2017-10-01T11:06:00Z,27.6346,-97.2370,0.0,4.9,70.0,5.6,'11111222,11111222,11111222' 
TCOON,ioos:station:TCOON:005:1,2017-10-01T11:12:00Z,27.6346,-97.2370,0.0,4.0,71.0,5.4,'11111222,11111222,11111222' 
TCOON,ioos:station:TCOON:005:1,2017-10-01T11:18:00Z,27.6346,-97.2370,0.0,4.0,71.0,5.4,'1111122,1111122,1111122' 
TCOON,ioos:station:TCOON:005:1,2017-10-01T11:24:00Z,27.6346,-97.2370,0.0,4.4,72.0,4.9,'11111222,11111222,11111222' 
TCOON,ioos:station:TCOON:005:1,2017-10-01T11:30:00Z,27.6346,-97.2370,0.0,4.4,75.0,5.0,'11111222,11111222,11111222' 
TCOON,ioos:station:TCOON:005:1,2017-10-01T11:36:00Z,27.6346,-97.2370,0.0,4.3,77.0,4.6,'11111222,11111222,11111222' 
TCOON,ioos:station:TCOON:005:1,2017-10-01T11:42:00Z,27.6346,-97.2370,0.0,4.1,69.0,4.9,'11111222,11111222,11111222' 
TCOON,ioos:station:TCOON:005:1,2017-10-01T11:48:00Z,27.6346,-97.2370,0.0,4.3,72.0,5.2,'11111222,11111222,11111222' 
TCOON,ioos:station:TCOON:005:1,2017-10-01T11:54:00Z,27.6346,-97.2370,0.0,4.7,70.0,5.7,'11111222,11111222,11111222' 
TCOON,ioos:station:TCOON:005:1,2017-10-01T12:00:00Z,27.6346,-97.2370,0.0,4.4,71.0,5.3,'11111222,11111222,11111222' 
TCOON,ioos:station:TCOON:005:1,2017-10-01T12:06:00Z,27.6346,-97.2370,0.0,4.9,72.0,5.6,'11111222,11111222,11111222' 
TCOON,ioos:station:TCOON:005:1,2017-10-01T12:12:00Z,27.6346,-97.2370,0.0,4.0,73.0,5.3,'11111222,11111222,11111222' 
TCOON,ioos:station:TCOON:005:1,2017-10-01T12:18:00Z,27.6346,-97.2370,0.0,4.0,73.0,5.3,'1111122,1111122,1111122' 
TCOON,ioos:station:TCOON:005:1,2017-10-01T12:24:00Z,27.6346,-97.2370,0.0,4.4,76.0,5.7,'11111222,11111222,11111222' 
TCOON,ioos:station:TCOON:005:1,2017-10-01T12:30:00Z,27.6346,-97.2370,0.0,4.7,73.0,5.4,'11111222,11111222,11111222' 
TCOON,ioos:station:TCOON:005:1,2017-10-01T12:36:00Z,27.6346,-97.2370,0.0,4.0,85.0,4.7,'11111222,11111222,11111222' 
TCOON,ioos:station:TCOON:005:1,2017-10-01T12:42:00Z,27.6346,-97.2370,0.0,4.1,81.0,4.8,'11111222,11111222,11111222' 
TCOON,ioos:station:TCOON:005:1,2017-10-01T12:48:00Z,27.6346,-97.2370,0.0,4.0,78.0,4.4,'11111222,11111222,11111222' 
TCOON,ioos:station:TCOON:005:1,2017-10-01T12:54:00Z,27.6346,-97.2370,0.0,4.2,87.0,5.0,'11111222,11111222,11111222' 
TCOON,ioos:station:TCOON:005:1,2017-10-01T13:00:00Z,27.6346,-97.2370,0.0,4.2,83.0,4.9,'11111222,11111222,11111222' 
TCOON,ioos:station:TCOON:005:1,2017-10-01T13:06:00Z,27.6346,-97.2370,0.0,3.7,74.0,4.7,'11111222,11111222,11111222' 
TCOON,ioos:station:TCOON:005:1,2017-10-01T13:12:00Z,27.6346,-97.2370,0.0,3.6,73.0,4.2,'11111222,11111222,11111222' 
TCOON,ioos:station:TCOON:005:1,2017-10-01T13:18:00Z,27.6346,-97.2370,0.0,3.6,73.0,4.2,'1111122,1111122,1111122' 
TCOON,ioos:station:TCOON:005:1,2017-10-01T13:24:00Z,27.6346,-97.2370,0.0,3.6,76.0,4.4,'11111222,11111222,11111222' 
TCOON,ioos:station:TCOON:005:1,2017-10-01T13:30:00Z,27.6346,-97.2370,0.0,3.5,79.0,4.2,'11111222,11111222,11111222' 
TCOON,ioos:station:TCOON:005:1,2017-10-01T13:36:00Z,27.6346,-97.2370,0.0,4.0,74.0,4.9,'11111222,11111222,11111222' 
TCOON,ioos:station:TCOON:005:1,2017-10-01T13:42:00Z,27.6346,-97.2370,0.0,4.0,77.0,4.9,'11111222,11111222,11111222' 
TCOON,ioos:station:TCOON:005:1,2017-10-01T13:48:00Z,27.6346,-97.2370,0.0,4.1,74.0,4.7,'11111222,11111222,11111222' 
TCOON,ioos:station:TCOON:005:1,2017-10-01T13:54:00Z,27.6346,-97.2370,0.0,4.3,75.0,4.8,'11111222,11111222,11111222' 
TCOON,ioos:station:TCOON:005:1,2017-10-01T14:00:00Z,27.6346,-97.2370,0.0,3.9,67.0,4.7,'11111222,11111222,11111222' 
TCOON,ioos:station:TCOON:005:1,2017-10-01T14:06:00Z,27.6346,-97.2370,0.0,3.3,79.0,4.5,'11111222,11111222,11111222' 
TCOON,ioos:station:TCOON:005:1,2017-10-01T14:12:00Z,27.6346,-97.2370,0.0,3.9,75.0,4.7,'11111222,11111222,11111222' 
TCOON,ioos:station:TCOON:005:1,2017-10-01T14:18:00Z,27.6346,-97.2370,0.0,3.9,75.0,4.7,'1111122,1111122,1111122' 
TCOON,ioos:station:TCOON:005:1,2017-10-01T14:24:00Z,27.6346,-97.2370,0.0,3.6,62.0,4.1,'11111222,11111222,11111222' 
TCOON,ioos:station:TCOON:005:1,2017-10-01T14:30:00Z,27.6346,-97.2370,0.0,4.2,60.0,4.7,'11111222,11111222,11111222' 
TCOON,ioos:station:TCOON:005:1,2017-10-01T14:36:00Z,27.6346,-97.2370,0.0,4.0,77.0,4.8,'11111222,11111222,11111222' 
TCOON,ioos:station:TCOON:005:1,2017-10-01T14:42:00Z,27.6346,-97.2370,0.0,3.2,71.0,4.3,'11111222,11111222,11111222' 
TCOON,ioos:station:TCOON:005:1,2017-10-01T14:48:00Z,27.6346,-97.2370,0.0,3.2,79.0,4.0,'11111222,11111222,11111222' 
TCOON,ioos:station:TCOON:005:1,2017-10-01T14:54:00Z,27.6346,-97.2370,0.0,3.5,64.0,4.3,'11111222,11111222,11111222' 
TCOON,ioos:station:TCOON:005:1,2017-10-01T15:00:00Z,27.6346,-97.2370,0.0,4.1,73.0,4.8,'11111222,11111222,11111222' 
TCOON,ioos:station:TCOON:005:1,2017-10-01T15:06:00Z,27.6346,-97.2370,0.0,3.9,65.0,4.6,'11111222,11111222,11111222' 
TCOON,ioos:station:TCOON:005:1,2017-10-01T15:12:00Z,27.6346,-97.2370,0.0,3.7,59.0,4.5,'11111222,11111222,11111222' 
TCOON,ioos:station:TCOON:005:1,2017-10-01T15:18:00Z,27.6346,-97.2370,0.0,3.7,59.0,4.5,'1111122,1111122,1111122' 
TCOON,ioos:station:TCOON:005:1,2017-10-01T15:24:00Z,27.6346,-97.2370,0.0,3.8,69.0,4.8,'11111222,11111222,11111222' 
TCOON,ioos:station:TCOON:005:1,2017-10-01T15:30:00Z,27.6346,-97.2370,0.0,3.6,93.0,5.3,'11111222,11111222,11111222' 
TCOON,ioos:station:TCOON:005:1,2017-10-01T15:36:00Z,27.6346,-97.2370,0.0,3.7,81.0,4.7,'11111222,11111222,11111222' 
TCOON,ioos:station:TCOON:005:1,2017-10-01T15:42:00Z,27.6346,-97.2370,0.0,3.5,84.0,5.5,'11111222,11111222,11111222' 
TCOON,ioos:station:TCOON:005:1,2017-10-01T15:48:00Z,27.6346,-97.2370,0.0,3.5,67.0,5.5,'11111222,11111222,11111222' 
TCOON,ioos:station:TCOON:005:1,2017-10-01T15:54:00Z,27.6346,-97.2370,0.0,3.9,67.0,5.5,'11111222,11111222,11111222' 
TCOON,ioos:station:TCOON:005:1,2017-10-01T16:00:00Z,27.6346,-97.2370,0.0,3.9,65.0,5.1,'11111222,11111222,11111222' 
TCOON,ioos:station:TCOON:005:1,2017-10-01T16:06:00Z,27.6346,-97.2370,0.0,4.4,81.0,5.1,'11111222,11111222,11111222' 
TCOON,ioos:station:TCOON:005:1,2017-10-01T16:12:00Z,27.6346,-97.2370,0.0,3.6,71.0,5.2,'11111222,11111222,11111222' 
TCOON,ioos:station:TCOON:005:1,2017-10-01T16:18:00Z,27.6346,-97.2370,0.0,3.6,71.0,5.2,'1111122,1111122,1111122' 
TCOON,ioos:station:TCOON:005:1,2017-10-01T16:24:00Z,27.6346,-97.2370,0.0,2.8,69.0,5.6,'11111222,11111222,11111222' 
TCOON,ioos:station:TCOON:005:1,2017-10-01T16:30:00Z,27.6346,-97.2370,0.0,3.1,73.0,5.1,'11111222,11111222,11111222' 
TCOON,ioos:station:TCOON:005:1,2017-10-01T16:36:00Z,27.6346,-97.2370,0.0,3.8,79.0,4.6,'11111222,11111222,11111222' 
TCOON,ioos:station:TCOON:005:1,2017-10-01T16:42:00Z,27.6346,-97.2370,0.0,3.1,66.0,5.5,'11111222,11111222,11111222' 
TCOON,ioos:station:TCOON:005:1,2017-10-01T16:48:00Z,27.6346,-97.2370,0.0,3.7,76.0,4.3,'11111222,11111222,11111222' 
TCOON,ioos:station:TCOON:005:1,2017-10-01T16:54:00Z,27.6346,-97.2370,0.0,2.7,80.0,4.4,'11111222,11111222,11111222' 
TCOON,ioos:station:TCOON:005:1,2017-10-01T17:00:00Z,27.6346,-97.2370,0.0,4.0,66.0,5.2,'11111222,11111222,11111222' 
TCOON,ioos:station:TCOON:005:1,2017-10-01T17:06:00Z,27.6346,-97.2370,0.0,3.5,60.0,5.1,'11111222,11111222,11111222' 
TCOON,ioos:station:TCOON:005:1,2017-10-01T17:12:00Z,27.6346,-97.2370,0.0,4.1,74.0,5.7,'11111222,11111222,11111222' 
TCOON,ioos:station:TCOON:005:1,2017-10-01T17:18:00Z,27.6346,-97.2370,0.0,4.1,74.0,5.7,'1111122,1111122,1111122' 
TCOON,ioos:station:TCOON:005:1,2017-10-01T17:24:00Z,27.6346,-97.2370,0.0,4.2,65.0,5.5,'11111222,11111222,11111222' 
TCOON,ioos:station:TCOON:005:1,2017-10-01T17:30:00Z,27.6346,-97.2370,0.0,4.3,63.0,5.9,'11111222,11111222,11111222' 
TCOON,ioos:station:TCOON:005:1,2017-10-01T17:36:00Z,27.6346,-97.2370,0.0,4.7,66.0,5.9,'11111222,11111222,11111222' 
TCOON,ioos:station:TCOON:005:1,2017-10-01T17:42:00Z,27.6346,-97.2370,0.0,3.9,55.0,5.0,'11111222,11111222,11111222' 
TCOON,ioos:station:TCOON:005:1,2017-10-01T17:48:00Z,27.6346,-97.2370,0.0,3.6,59.0,6.1,'11111222,11111222,11111222' 
TCOON,ioos:station:TCOON:005:1,2017-10-01T17:54:00Z,27.6346,-97.2370,0.0,3.9,75.0,5.5,'11111222,11111222,11111222' 
TCOON,ioos:station:TCOON:005:1,2017-10-01T18:00:00Z,27.6346,-97.2370,0.0,3.7,68.0,5.1,'11111222,11111222,11111222' 
TCOON,ioos:station:TCOON:005:1,2017-10-01T18:06:00Z,27.6346,-97.2370,0.0,4.1,80.0,5.1,'11111222,11111222,11111222' 
TCOON,ioos:station:TCOON:005:1,2017-10-01T18:12:00Z,27.6346,-97.2370,0.0,4.4,71.0,5.2,'11111222,11111222,11111222' 
TCOON,ioos:station:TCOON:005:1,2017-10-01T18:18:00Z,27.6346,-97.2370,0.0,4.4,71.0,5.2,'1111122,1111122,1111122' 
TCOON,ioos:station:TCOON:005:1,2017-10-01T18:24:00Z,27.6346,-97.2370,0.0,4.9,77.0,5.7,'11111222,11111222,11111222' 
TCOON,ioos:station:TCOON:005:1,2017-10-01T18:30:00Z,27.6346,-97.2370,0.0,3.2,67.0,5.4,'11111222,11111222,11111222' 
TCOON,ioos:station:TCOON:005:1,2017-10-01T18:36:00Z,27.6346,-97.2370,0.0,4.1,83.0,5.3,'11111222,11111222,11111222' 
TCOON,ioos:station:TCOON:005:1,2017-10-01T18:42:00Z,27.6346,-97.2370,0.0,4.2,68.0,5.1,'11111222,11111222,11111222' 
TCOON,ioos:station:TCOON:005:1,2017-10-01T18:48:00Z,27.6346,-97.2370,0.0,3.8,80.0,6.1,'11111222,11111222,11111222' 
TCOON,ioos:station:TCOON:005:1,2017-10-01T18:54:00Z,27.6346,-97.2370,0.0,4.1,86.0,5.2,'11111222,11111222,11111222' 
TCOON,ioos:station:TCOON:005:1,2017-10-01T19:00:00Z,27.6346,-97.2370,0.0,3.5,84.0,5.3,'11111222,11111222,11111222' 
TCOON,ioos:station:TCOON:005:1,2017-10-01T19:06:00Z,27.6346,-97.2370,0.0,4.6,88.0,6.1,'11111222,11111222,11111222' 
TCOON,ioos:station:TCOON:005:1,2017-10-01T19:12:00Z,27.6346,-97.2370,0.0,4.7,72.0,6.2,'11111222,11111222,11111222' 
TCOON,ioos:station:TCOON:005:1,2017-10-01T19:18:00Z,27.6346,-97.2370,0.0,4.7,72.0,6.2,'1111122,1111122,1111122' 
TCOON,ioos:station:TCOON:005:1,2017-10-01T19:24:00Z,27.6346,-97.2370,0.0,5.1,95.0,6.2,'11111222,11111222,11111222' 
TCOON,ioos:station:TCOON:005:1,2017-10-01T19:30:00Z,27.6346,-97.2370,0.0,4.8,89.0,6.6,'11111222,11111222,11111222' 
TCOON,ioos:station:TCOON:005:1,2017-10-01T19:36:00Z,27.6346,-97.2370,0.0,4.1,86.0,7.0,'11111222,11111222,11111222' 
TCOON,ioos:station:TCOON:005:1,2017-10-01T19:42:00Z,27.6346,-97.2370,0.0,3.8,108.0,6.6,'11111222,11111222,11111222' 
TCOON,ioos:station:TCOON:005:1,2017-10-01T19:48:00Z,27.6346,-97.2370,0.0,4.7,91.0,6.8,'11111222,11111222,11111222' 
TCOON,ioos:station:TCOON:005:1,2017-10-01T19:54:00Z,27.6346,-97.2370,0.0,4.3,99.0,6.1,'11111222,11111222,11111222' 
TCOON,ioos:station:TCOON:005:1,2017-10-01T20:00:00Z,27.6346,-97.2370,0.0,5.1,91.0,6.2,'11111222,11111222,11111222' 
TCOON,ioos:station:TCOON:005:1,2017-10-01T20:06:00Z,27.6346,-97.2370,0.0,4.7,85.0,6.8,'11111222,11111222,11111222' 
TCOON,ioos:station:TCOON:005:1,2017-10-01T20:12:00Z,27.6346,-97.2370,0.0,5.1,83.0,6.3,'11111222,11111222,11111222' 
TCOON,ioos:station:TCOON:005:1,2017-10-01T20:18:00Z,27.6346,-97.2370,0.0,5.1,83.0,6.3,'1111122,1111122,1111122' 
TCOON,ioos:station:TCOON:005:1,2017-10-01T20:24:00Z,27.6346,-97.2370,0.0,4.6,94.0,7.4,'11111222,11111222,11111222' 
TCOON,ioos:station:TCOON:005:1,2017-10-01T20:30:00Z,27.6346,-97.2370,0.0,4.8,93.0,7.0,'11111222,11111222,11111222' 
TCOON,ioos:station:TCOON:005:1,2017-10-01T20:36:00Z,27.6346,-97.2370,0.0,4.0,94.0,6.5,'11111222,11111222,11111222' 